Hazen, ND

2:46 AM CST on November 21, 2019 (GMT -0600)
Mercer County Regional

Weather History for KHZE - October, 2019

Change the Weather History Date:

Sunday, October 13, 2019

  Actual Average (KN60) Record (KN60)
Temperature  
Mean Temperature 35 °F -  
Max Temperature 44 °F - 68 °F (1996)
Min Temperature 24 °F - 20 °F (2017)
Degree Days  
Heating Degree Days 30    
Cooling Degree Days 0    
Moisture  
Dew Point 30 °F    
Average Humidity 82    
Maximum Humidity 100    
Minimum Humidity 61    
Precipitation  
Precipitation 0.00 in - 0.06 in (2011)
Month to date precipitation  
Year to date precipitation  
Sea Level Pressure  
Sea Level Pressure 29.89 in    
Wind  
Wind Speed 10 mph (NW)    
Max Wind Speed 16 mph    
Max Gust Speed 25 mph    
Visibility 10 miles    
Events Snow    
T = Trace of Precipitation, MM = Missing Value Source: NWS Daily Summary

Daily Weather History Graph

Daily Weather History Graph

Search for Another Location

Airport or City:

Astronomy

Oct. 13, 2019 Rise Set
Actual Time 8:01 AM CDT 7:02 PM CDT
Civil Twilight 7:30 AM CDT 7:33 PM CDT
Nautical Twilight 6:55 AM CDT 8:08 PM CDT
Astronomical Twilight 6:19 AM CDT 8:44 PM CDT
Moon 7:29 PM CDT (10/13) 7:32 AM CDT (10/13)
Length of Visible Light 12h 02m
Length of Day
11h 01m
Full, 100% of the Moon is Illuminated
Oct 13
Full
Oct 13
Full
Oct 21
Last Quarter
Oct 27
New
Nov 4
First Quarter

Hourly Weather History & Observations

Time (CDT) Temp. Windchill Dew Point Humidity Pressure Visibility Wind Dir Wind Speed Gust Speed Precip Events Conditions
12:55 AM 32.0 °F 23.6 °F 28.4 °F 87% 29.83 in 10.0 mi NNW 10.4 mph - N/A   Overcast
1:15 AM 32.0 °F 22.5 °F 28.4 °F 87% 29.83 in 10.0 mi NW 12.7 mph - N/A   Overcast
1:35 AM 32.0 °F 22.1 °F 28.4 °F 87% 29.83 in 10.0 mi NNW 13.8 mph - N/A   Overcast
1:55 AM 32.0 °F 21.6 °F 28.4 °F 87% 29.83 in 10.0 mi NW 15.0 mph - N/A   Overcast
2:15 AM 32.0 °F 22.1 °F 28.4 °F 87% 29.83 in 10.0 mi NW 13.8 mph - N/A   Overcast
2:35 AM 32.0 °F 23.6 °F 28.4 °F 87% 29.83 in 10.0 mi NW 10.4 mph - N/A   Overcast
2:55 AM 32.0 °F 23.0 °F 28.4 °F 87% 29.83 in 10.0 mi NNW 11.5 mph 17.3 mph N/A   Overcast
3:15 AM 32.0 °F 23.0 °F 28.4 °F 87% 29.84 in 8.0 mi NNW 11.5 mph - N/A Snow Light Snow
3:35 AM 32.0 °F 22.5 °F 28.4 °F 87% 29.85 in 8.0 mi NNW 12.7 mph - N/A Snow Light Snow
3:55 AM 32.0 °F 22.5 °F 28.4 °F 87% 29.85 in 8.0 mi NNW 12.7 mph - N/A Snow Light Snow
4:15 AM 33.8 °F 24.8 °F 28.4 °F 81% 29.84 in 10.0 mi NW 12.7 mph - N/A   Overcast
4:35 AM 33.8 °F 23.9 °F 28.4 °F 81% 29.85 in 10.0 mi NNW 15.0 mph - N/A   Overcast
4:55 AM 33.8 °F 25.8 °F 30.2 °F 87% 29.85 in 10.0 mi NNW 10.4 mph - N/A   Overcast
5:15 AM 33.8 °F 24.8 °F 30.2 °F 87% 29.85 in 10.0 mi NNW 12.7 mph - N/A   Overcast
5:35 AM 33.8 °F 25.8 °F 30.2 °F 87% 29.85 in 10.0 mi NNW 10.4 mph - N/A   Overcast
5:55 AM 35.6 °F 27.1 °F 30.2 °F 81% 29.85 in 10.0 mi NW 12.7 mph - N/A   Overcast
6:15 AM 35.6 °F 25.9 °F 28.4 °F 75% 29.85 in 10.0 mi NNW 16.1 mph 21.9 mph N/A   Overcast
6:35 AM 35.6 °F 26.2 °F 30.2 °F 81% 29.85 in 10.0 mi NNW 15.0 mph 25.3 mph N/A   Overcast
6:55 AM 35.6 °F 25.9 °F 30.2 °F 81% 29.85 in 9.0 mi NNW 16.1 mph 21.9 mph N/A   Overcast
7:15 AM 35.6 °F 26.6 °F 30.2 °F 81% 29.86 in 10.0 mi NNW 13.8 mph - N/A   Overcast
7:35 AM 33.8 °F 25.3 °F 30.2 °F 87% 29.86 in 10.0 mi NNW 11.5 mph - N/A   Overcast
7:55 AM 33.8 °F 25.8 °F 30.2 °F 87% 29.87 in 10.0 mi NW 10.4 mph - N/A   Overcast
8:15 AM 35.6 °F 28.0 °F 30.2 °F 81% 29.87 in 10.0 mi NW 10.4 mph - N/A   Overcast
8:35 AM 33.8 °F 26.4 °F 30.2 °F 87% 29.87 in 10.0 mi NW 9.2 mph - N/A   Overcast
8:55 AM 35.6 °F 27.5 °F 30.2 °F 81% 29.87 in 10.0 mi NW 11.5 mph - N/A   Overcast
9:15 AM 35.6 °F 27.5 °F 30.2 °F 81% 29.88 in 10.0 mi NNW 11.5 mph - N/A   Overcast
9:35 AM 35.6 °F 26.6 °F 30.2 °F 81% 29.89 in 10.0 mi NNW 13.8 mph - N/A   Overcast
9:55 AM 35.6 °F 27.5 °F 30.2 °F 81% 29.90 in 10.0 mi NNW 11.5 mph 18.4 mph N/A   Overcast
10:15 AM 35.6 °F 27.5 °F 30.2 °F 81% 29.90 in 10.0 mi NNW 11.5 mph - N/A   Overcast
10:35 AM 35.6 °F 26.6 °F 30.2 °F 81% 29.90 in 10.0 mi NNW 13.8 mph - N/A   Overcast
10:55 AM 35.6 °F 27.5 °F 30.2 °F 81% 29.91 in 10.0 mi NNW 11.5 mph 17.3 mph N/A   Overcast
11:15 AM 35.6 °F 27.1 °F 30.2 °F 81% 29.91 in 10.0 mi NNW 12.7 mph - N/A   Overcast
11:35 AM 35.6 °F 27.1 °F 30.2 °F 81% 29.92 in 10.0 mi NNW 12.7 mph - N/A   Overcast
11:55 AM 37.4 °F 29.3 °F 30.2 °F 75% 29.92 in 10.0 mi NNW 12.7 mph - N/A   Overcast
12:15 PM 37.4 °F 30.3 °F 30.2 °F 75% 29.92 in 10.0 mi NNW 10.4 mph - N/A   Overcast
12:35 PM 37.4 °F 30.8 °F 30.2 °F 75% 29.92 in 10.0 mi NNW 9.2 mph - N/A   Overcast
12:55 PM 37.4 °F 30.3 °F 32.0 °F 81% 29.93 in 10.0 mi WNW 10.4 mph - N/A   Overcast
1:15 PM 37.4 °F 29.8 °F 32.0 °F 81% 29.92 in 10.0 mi NNW 11.5 mph - N/A   Overcast
1:35 PM 39.2 °F 33.6 °F 32.0 °F 75% 29.92 in 10.0 mi NNW 8.1 mph - N/A   Overcast
1:55 PM 39.2 °F 33.0 °F 32.0 °F 75% 29.92 in 10.0 mi NNW 9.2 mph - N/A   Overcast
2:15 PM 41.0 °F 34.3 °F 32.0 °F 70% 29.92 in 10.0 mi NW 11.5 mph - N/A   Overcast
2:35 PM 41.0 °F 35.2 °F 32.0 °F 70% 29.91 in 10.0 mi North 9.2 mph - N/A   Overcast
2:55 PM 41.0 °F 34.7 °F 32.0 °F 70% 29.91 in 10.0 mi NNW 10.4 mph - N/A   Scattered Clouds
3:15 PM 42.8 °F 38.0 °F 32.0 °F 66% 29.91 in 10.0 mi NW 8.1 mph 15.0 mph N/A   Clear
3:35 PM 42.8 °F 38.6 °F 32.0 °F 66% 29.90 in 10.0 mi NNW 6.9 mph - N/A   Clear
3:55 PM 42.8 °F 38.0 °F 32.0 °F 66% 29.91 in 10.0 mi West 8.1 mph - N/A   Clear
4:15 PM 42.8 °F 37.5 °F 32.0 °F 66% 29.91 in 10.0 mi NW 9.2 mph - N/A   Clear
4:35 PM 44.6 °F 40.7 °F 32.0 °F 61% 29.91 in 10.0 mi West 6.9 mph 13.8 mph N/A   Clear
4:55 PM 44.6 °F 40.7 °F 32.0 °F 61% 29.90 in 10.0 mi West 6.9 mph - N/A   Partly Cloudy
5:15 PM 44.6 °F 42.2 °F 32.0 °F 61% 29.90 in 10.0 mi Variable 4.6 mph - N/A   Clear
5:35 PM 44.6 °F 42.2 °F 32.0 °F 61% 29.90 in 10.0 mi West 4.6 mph - N/A   Clear
5:55 PM 44.6 °F - 32.0 °F 61% 29.90 in 10.0 mi Calm Calm - N/A   Clear
6:15 PM 44.6 °F - 32.0 °F 61% 29.90 in 10.0 mi Calm Calm - N/A   Clear
6:35 PM 42.8 °F 41.1 °F 32.0 °F 66% 29.90 in 10.0 mi SW 3.5 mph - N/A   Clear
6:55 PM 39.2 °F 37.0 °F 32.0 °F 75% 29.90 in 10.0 mi SW 3.5 mph - N/A   Clear
7:15 PM 33.8 °F 28.6 °F 32.0 °F 93% 29.90 in 10.0 mi SSW 5.8 mph - N/A   Clear
7:35 PM 33.8 °F 28.6 °F 32.0 °F 93% 29.90 in 10.0 mi South 5.8 mph - N/A   Clear
7:55 PM 33.8 °F 27.7 °F 32.0 °F 93% 29.90 in 10.0 mi South 6.9 mph - N/A   Clear
8:15 PM 33.8 °F 27.7 °F 30.2 °F 87% 29.91 in 10.0 mi SSE 6.9 mph - N/A   Clear
8:35 PM 32.0 °F 24.8 °F 30.2 °F 93% 29.91 in 10.0 mi SSE 8.1 mph - N/A   Clear
8:55 PM 32.0 °F - 30.2 °F 93% 29.91 in 10.0 mi Calm Calm - N/A   Clear
9:15 PM 32.0 °F - 30.2 °F 93% 29.91 in 10.0 mi Calm Calm - N/A   Clear
9:35 PM 30.2 °F - 30.2 °F 100% 29.91 in 10.0 mi Calm Calm - N/A   Clear
9:55 PM 30.2 °F - 30.2 °F 100% 29.91 in 10.0 mi Calm Calm - N/A   Clear
10:15 PM 28.4 °F - 28.4 °F 100% 29.91 in 10.0 mi Calm Calm - N/A   Clear
10:35 PM 26.6 °F - 26.6 °F 100% 29.91 in 10.0 mi Calm Calm - N/A   Clear
10:55 PM 28.4 °F - 28.4 °F 100% 29.91 in 10.0 mi Calm Calm - N/A   Clear
11:15 PM 28.4 °F - 28.4 °F 100% 29.91 in 10.0 mi Calm Calm - N/A   Clear
11:35 PM 26.6 °F - 26.6 °F 100% 29.91 in 10.0 mi Calm Calm - N/A   Clear
11:55 PM 24.8 °F - 24.8 °F 100% 29.91 in 10.0 mi Calm Calm - N/A   Clear